Weather History for Kansas City International, MO

Change the Weather History Date:

Tuesday, March 26, 2013

  Actual Average Record
Temperature  
Mean Temperature 28 °F 48 °F  
Max Temperature 36 °F 59 °F 85 °F (1991)
Min Temperature 20 °F 37 °F 7 °F (1955)
Degree Days  
Heating Degree Days 37 17  
Month to date heating degree days 762 565  
Since 1 July heating degree days 4494 4610  
Cooling Degree Days 0 0  
Month to date cooling degree days 0 0  
Year to date cooling degree days 0 0  
Moisture  
Dew Point 19 °F    
Average Humidity 68    
Maximum Humidity 84    
Minimum Humidity 52    
Precipitation  
Precipitation 0.00 in 0.09 in 2.68 in (1916)
Month to date precipitation 1.94 1.90  
Year to date precipitation 4.83 4.43  
Snow  
Snow 0.00 in 0.10 in 2.50 in (1931)
Month to date snowfall 6.0 1.8  
Since 1 July snowfall 31.2 18.0  
Snow Depth 1.00 in    
Sea Level Pressure  
Sea Level Pressure 30.37 in    
Wind  
Wind Speed 6 mph (WSW)    
Max Wind Speed 10 mph    
Max Gust Speed 25 mph    
Visibility 10 miles    
Events      
T = Trace of Precipitation, MM = Missing Value Source: NWS Daily Summary

Daily Weather History Graph

Daily Weather History Graph

Search for Another Location

Airport:

Trip Planner

Search our weather history database for the weather conditions in past years. The results will help you decide how hot, cold, wet, or windy it might be!

Date:

Astronomy

Mar. 26, 2013 Rise Set
Actual Time 7:12 AM CDT 7:37 PM CDT
Civil Twilight 6:45 AM CDT 8:04 PM CDT
Nautical Twilight 6:14 AM CDT 8:35 PM CDT
Astronomical Twilight 5:41 AM CDT 9:08 PM CDT
Moon 7:14 PM CDT (3/26) 6:29 AM CDT (3/26)
Length of Visible Light 13h 18m
Length of Day
12h 24m
Waxing Gibbous, 99% of the Moon is Illuminated
Mar 26
Waxing Gibbous
Mar 27
Full
Apr 2
Last Quarter
Apr 10
New
Apr 18
First Quarter

Hourly Weather History & Observations

Time (CDT) Temp. Windchill Dew Point Humidity Pressure Visibility Wind Dir Wind Speed Gust Speed Precip Events Conditions
12:53 AM 26.1 °F 18.4 °F 19.0 °F 75% 30.36 in 10.0 mi WNW 6.9 mph - N/A   Clear
1:53 AM 24.1 °F 16.0 °F 19.0 °F 81% 30.35 in 10.0 mi NW 6.9 mph - N/A   Clear
2:53 AM 24.1 °F 16.0 °F 19.0 °F 81% 30.35 in 10.0 mi NW 6.9 mph - N/A   Clear
3:53 AM 24.1 °F 17.0 °F 18.0 °F 77% 30.35 in 10.0 mi WNW 5.8 mph - N/A   Clear
4:53 AM 23.0 °F 14.7 °F 18.0 °F 81% 30.35 in 10.0 mi WNW 6.9 mph - N/A   Clear
5:53 AM 21.9 °F 13.4 °F 17.1 °F 82% 30.36 in 10.0 mi WNW 6.9 mph - N/A   Partly Cloudy
6:53 AM 21.0 °F 12.4 °F 16.0 °F 81% 30.37 in 10.0 mi WNW 6.9 mph - N/A   Partly Cloudy
7:53 AM 19.9 °F 12.1 °F 16.0 °F 85% 30.39 in 10.0 mi WNW 5.8 mph - N/A   Partly Cloudy
8:53 AM 24.1 °F 15.2 °F 17.1 °F 75% 30.41 in 10.0 mi WNW 8.1 mph - N/A   Partly Cloudy
9:53 AM 27.0 °F 19.5 °F 18.0 °F 69% 30.42 in 10.0 mi WNW 6.9 mph - N/A   Clear
10:53 AM 28.9 °F 23.9 °F 19.0 °F 67% 30.43 in 10.0 mi Variable 4.6 mph - N/A   Clear
11:53 AM 32.0 °F 28.7 °F 19.9 °F 61% 30.42 in 10.0 mi West 3.5 mph - N/A   Partly Cloudy
12:53 PM 33.8 °F 28.6 °F 19.4 °F 56% 30.38 in 10.0 mi Variable 5.8 mph - N/A   Scattered Clouds
1:53 PM 34.0 °F 27.2 °F 19.0 °F 54% 30.40 in 10.0 mi WSW 8.1 mph - N/A   Scattered Clouds
2:53 PM 34.0 °F 27.2 °F 19.0 °F 54% 30.38 in 10.0 mi West 8.1 mph - N/A   Partly Cloudy
3:53 PM 34.0 °F 29.8 °F 19.0 °F 54% 30.36 in 10.0 mi SSW 4.6 mph - N/A   Partly Cloudy
4:53 PM 35.1 °F 30.1 °F 19.9 °F 54% 30.35 in 10.0 mi SSW 5.8 mph - N/A   Partly Cloudy
5:53 PM 35.1 °F 31.0 °F 19.9 °F 54% 30.32 in 10.0 mi South 4.6 mph - N/A   Partly Cloudy
6:53 PM 34.0 °F 31.0 °F 21.0 °F 59% 30.32 in 10.0 mi South 3.5 mph - N/A   Scattered Clouds
7:53 PM 30.9 °F 26.2 °F 19.9 °F 64% 30.32 in 10.0 mi South 4.6 mph - N/A   Partly Cloudy
8:53 PM 28.9 °F 21.9 °F 19.9 °F 69% 30.33 in 10.0 mi SSW 6.9 mph - N/A   Clear
9:53 PM 28.0 °F 20.8 °F 19.0 °F 69% 30.35 in 10.0 mi SSW 6.9 mph - N/A   Partly Cloudy
10:53 PM 26.1 °F 21.9 °F 18.0 °F 71% 30.35 in 10.0 mi SSW 3.5 mph - N/A   Clear
11:53 PM 27.0 °F 21.6 °F 18.0 °F 69% 30.33 in 10.0 mi SE 4.6 mph - N/A   Clear